Theta_e
354 350 354 355 355 353 353 351 351 350 350 350 350 350 350 349 348 348 348 348 349 351 351 351 350 348 346 347 347 346 345 344 344 345 346 346 347 347 348 347 346 345 344 343 342 341 341 340 340 339 338 337 336 341 341 342 342 342 340 339 339 336
352 350 354 353 354 354 354 352 353 353 352 351 350 350 351 350 348 349 348 350 352 352 349 349 349 347 347 347 347 345 345 344 344 345 346 346 346 346 347 347 346 345 343 342 341 343 342 341 339 338 337 336 340 341 344 343 342 339 340 340 338 337
350 350 352 353 353 353 354 354 353 352 349 348 350 351 349 348 350 347 350 351 350 351 352 351 350 346 347 346 347 345 344 344 344 345 346 346 346 346 345 346 345 344 343 342 344 343 343 340 339 337 336 341 342 342 344 343 342 341 340 339 338 337
351 351 352 349 352 353 353 354 353 353 352 351 352 350 349 350 350 351 352 352 352 351 352 353 347 347 346 346 347 345 344 343 343 344 345 347 346 346 345 345 344 343 342 343 346 342 341 340 337 340 342 340 339 341 343 343 339 339 340 338 337 336
353 353 352 352 352 352 354 353 352 351 351 347 351 351 351 351 352 352 351 352 353 353 352 351 351 348 344 345 345 345 345 343 343 344 345 345 346 347 347 346 345 341 344 345 344 344 343 341 341 340 341 340 341 342 342 342 340 341 340 339 337 334
352 352 354 353 353 353 354 352 352 351 350 351 351 350 352 352 351 352 351 352 352 353 353 350 350 348 346 345 344 342 343 341 340 341 343 342 342 345 345 344 342 342 344 346 346 344 342 342 340 341 339 340 341 342 341 340 340 340 340 338 337 334
354 354 355 355 354 353 352 353 353 352 350 348 351 349 349 352 352 353 353 353 352 351 350 348 349 349 346 345 343 342 341 344 342 341 342 342 343 345 342 343 344 344 345 344 343 342 341 341 341 339 340 339 340 340 340 339 338 338 338 337 337 334
354 354 355 354 354 353 354 354 354 351 351 350 349 348 348 352 353 352 353 353 353 348 346 348 350 348 348 346 344 344 343 343 341 340 341 340 341 341 341 342 343 344 342 343 340 341 340 341 340 342 339 340 340 340 340 338 339 339 338 338 338 335
352 351 353 353 352 353 354 354 353 352 350 349 348 347 346 349 351 352 353 352 352 348 345 343 347 349 347 345 345 344 342 342 342 339 340 338 340 341 342 342 342 342 343 342 341 342 339 340 342 342 340 339 341 341 341 340 339 336 337 337 338 335
350 350 350 353 352 351 353 352 353 352 350 349 348 348 348 346 348 350 350 352 349 348 346 345 345 346 346 345 345 345 343 343 341 341 339 340 339 340 341 341 343 342 340 341 341 341 340 340 339 341 340 340 340 340 340 338 337 336 337 337 338 336
350 350 350 348 351 351 353 352 351 351 351 350 349 349 348 347 347 348 349 353 350 349 350 349 347 346 346 344 345 344 343 343 341 341 340 339 341 341 343 342 343 341 342 341 340 340 339 340 339 340 341 338 340 340 338 339 337 337 336 336 337 337
349 350 350 347 349 350 350 351 352 351 350 351 350 349 348 348 346 347 348 352 352 350 350 350 350 349 347 344 344 344 343 344 343 341 342 340 339 341 342 341 343 343 343 342 342 342 342 340 340 338 339 340 339 339 337 337 337 338 337 337 336 337
348 349 349 348 346 347 350 350 351 351 351 350 351 350 349 348 348 348 349 351 350 349 350 349 350 350 347 345 344 343 343 343 342 342 343 343 340 342 341 341 342 342 342 342 341 341 340 341 339 339 340 340 338 337 339 338 338 338 337 337 337 337
345 343 341 341 342 344 347 349 349 350 350 351 349 348 348 348 348 347 348 350 349 348 348 349 349 349 347 346 346 343 342 342 342 344 343 343 339 339 338 340 339 340 339 340 339 340 338 339 339 339 340 339 339 340 339 337 338 337 337 338 337 338
340 342 341 341 338 341 343 342 345 347 348 350 349 348 348 348 346 347 348 346 350 348 346 348 348 348 347 346 346 344 342 342 343 343 341 342 340 339 339 338 337 337 339 338 338 338 339 340 338 337 339 339 339 339 339 339 338 338 338 339 338 338
339 343 342 341 341 341 342 342 343 344 346 348 347 348 347 348 347 347 348 347 347 348 343 343 344 341 344 346 345 345 344 345 345 342 340 340 341 339 339 338 339 338 337 337 338 338 338 339 338 337 339 338 338 338 340 339 340 340 339 339 339 341
341 342 342 341 342 344 346 345 345 344 345 347 347 347 347 348 347 347 347 346 347 348 347 342 342 345 346 346 345 345 345 346 345 343 341 340 339 339 339 338 339 339 339 336 336 336 337 339 337 337 337 338 337 338 340 341 340 339 340 340 341 339
343 343 342 342 343 344 345 346 345 346 347 346 347 347 348 347 347 346 347 345 346 347 347 344 341 342 345 345 346 346 345 345 344 343 341 341 339 339 340 340 339 339 340 337 335 335 336 337 337 336 336 337 337 337 340 341 341 339 340 339 339 339
344 342 340 342 341 341 343 346 345 346 345 346 347 347 348 347 347 347 346 345 345 346 346 345 342 338 339 345 345 344 344 343 342 341 341 340 339 338 339 341 341 340 341 340 337 337 336 335 335 335 335 336 339 340 341 341 341 339 340 340 341 340
345 342 341 342 341 340 341 339 339 343 342 343 345 344 347 345 347 345 345 345 345 346 345 346 344 339 336 341 346 344 343 342 342 342 340 338 336 336 338 340 340 338 336 337 338 337 337 335 335 335 334 337 339 340 340 340 341 341 341 340 339 338
347 344 341 339 338 337 336 338 339 339 339 342 342 343 342 345 345 345 345 344 344 344 345 343 335 335 336 339 338 341 341 341 341 342 341 339 338 338 339 343 340 338 336 335 335 337 336 337 333 333 334 335 337 339 340 340 339 340 339 337 336 335
345 342 341 341 340 338 339 338 338 338 340 341 341 340 340 342 343 343 344 345 345 344 344 345 341 336 338 339 338 337 338 340 342 342 343 343 342 340 340 339 341 336 338 335 334 336 336 335 331 329 327 328 331 335 339 339 337 338 339 340 337 335
339 339 340 342 341 340 340 342 341 340 341 341 346 346 345 345 346 345 345 345 343 341 340 341 343 339 337 337 338 336 336 339 336 340 343 342 344 342 342 341 339 335 334 336 335 337 337 337 331 332 331 328 324 325 331 334 337 336 336 338 336 337
339 339 339 341 340 342 342 343 344 343 343 341 340 345 346 345 344 344 343 343 342 341 340 339 340 341 339 336 337 336 336 337 338 343 341 340 341 341 343 341 339 337 335 332 332 333 338 339 336 331 323 324 326 325 321 322 327 332 337 338 338 338
338 338 338 338 339 340 341 341 341 341 341 341 341 339 338 338 341 342 341 341 340 340 339 340 341 341 342 339 338 336 335 337 336 341 341 341 340 339 341 341 340 339 337 335 333 335 336 339 337 338 334 326 323 322 323 327 329 329 334 333 337 336
337 338 338 339 340 341 340 339 338 335 332 333 334 334 334 335 338 339 338 341 340 339 339 340 341 342 338 336 337 337 336 335 334 340 338 342 340 341 341 340 340 340 337 338 336 332 332 337 340 338 336 338 333 324 323 328 327 321 332 333 333 333
338 337 338 339 340 340 339 340 338 336 335 335 333 335 338 340 339 339 339 340 341 342 340 338 340 341 339 336 337 339 335 335 336 336 340 344 341 339 337 339 340 338 338 338 334 331 333 334 335 333 336 338 336 334 332 329 324 325 323 328 333 333
337 337 338 338 340 340 340 339 338 337 338 338 337 337 339 338 339 338 338 339 340 341 341 340 338 338 339 338 337 336 336 336 335 333 339 341 342 341 339 340 340 339 340 336 331 333 333 333 330 329 335 336 336 335 335 335 334 329 324 321 325 332
335 336 339 338 337 338 338 338 337 337 337 338 339 337 336 337 335 336 337 339 339 338 338 340 339 338 338 337 337 335 335 335 334 335 335 340 341 339 337 338 339 339 340 336 337 336 333 330 332 333 332 333 334 333 332 334 335 334 325 322 323 326
332 334 337 337 337 337 338 337 337 337 338 337 337 336 336 335 335 336 336 337 339 337 336 338 338 336 337 336 335 335 335 335 334 334 337 336 336 335 335 337 338 337 340 339 339 335 332 334 334 337 334 334 332 331 331 331 332 331 331 329 324 323
327 330 333 336 337 336 337 337 335 335 335 335 334 333 333 334 334 334 336 336 338 337 337 337 337 337 337 335 334 334 336 336 335 336 335 335 335 337 336 337 339 339 337 338 334 332 332 334 336 332 333 333 332 332 331 329 330 331 330 328 325 325
324 324 327 330 333 333 334 334 333 333 332 332 332 332 332 331 333 333 335 335 336 335 335 337 338 337 334 334 334 335 335 335 335 337 335 336 335 335 337 337 338 338 337 337 335 333 334 338 335 333 334 334 334 334 332 330 330 330 330 329 328 326
322 325 326 327 328 331 333 333 334 333 333 334 333 333 333 333 334 334 334 334 336 334 335 335 335 334 334 335 335 334 334 335 334 334 334 334 335 336 337 336 336 337 339 335 335 336 337 333 335 329 333 335 336 334 333 333 332 331 332 332 329 325
321 323 325 326 326 327 330 333 333 333 333 332 333 334 334 333 334 334 335 335 337 336 335 335 336 336 336 336 335 335 335 335 334 334 335 335 336 337 336 335 336 337 334 335 335 336 337 338 337 335 336 336 336 334 334 333 332 332 332 331 329 327
318 321 323 323 325 326 327 329 331 332 332 333 333 334 334 334 334 334 335 335 336 337 337 336 336 337 337 337 337 336 336 336 335 335 336 334 334 335 336 336 337 338 335 334 332 332 337 337 336 335 334 334 336 335 334 334 333 333 333 333 331 329
317 318 319 319 320 322 324 327 329 329 331 333 333 334 334 334 335 337 336 335 336 337 337 337 338 338 337 337 337 336 336 336 336 336 335 336 336 335 334 335 337 333 332 335 333 331 336 336 337 336 334 336 337 334 335 335 335 335 333 334 333 331
315 315 315 317 319 321 321 323 326 327 328 330 332 332 333 335 337 337 337 335 335 336 337 338 337 337 336 337 337 336 334 335 336 336 336 337 336 336 336 334 334 334 334 334 334 334 336 335 337 336 332 335 335 335 337 339 337 336 334 334 334 332
Wind_Speed
8 11 10 10 10 11 13 15 13 13 13 12 11 11 11 11 12 11 11 9 10 10 10 9 10 9 11 8 8 10 10 10 10 9 8 6 6 7 9 11 12 12 13 13 12 12 11 10 10 9 9 8 11 4 5 4 5 6 7 7 8 9
8 10 8 9 8 8 10 12 12 13 13 13 13 13 12 12 12 10 11 9 8 7 7 8 8 11 7 8 8 9 10 10 10 9 6 6 7 8 10 11 13 13 13 13 13 8 8 9 9 8 8 9 8 5 3 3 4 5 6 7 8 9
9 9 10 9 8 8 10 9 10 10 9 12 12 12 11 11 10 10 10 8 6 5 6 5 6 7 7 7 9 10 10 10 10 8 6 7 7 9 10 12 13 13 13 13 9 6 6 6 6 7 8 8 3 3 4 4 4 4 6 8 8 12
8 9 7 6 7 8 9 8 8 9 8 9 10 10 10 9 8 8 8 7 5 6 6 5 7 10 11 8 8 10 11 10 10 8 7 7 9 9 11 11 12 13 11 9 5 5 6 6 6 5 2 3 4 4 3 3 5 5 6 8 8 10
7 7 7 6 7 7 8 7 7 8 8 8 8 8 7 8 7 8 8 6 6 6 6 6 7 8 7 7 8 8 8 8 8 8 10 8 8 8 9 9 8 10 7 5 5 4 4 5 4 3 3 3 3 3 4 4 4 5 6 7 8 6
7 8 8 7 7 7 7 7 8 7 7 6 7 7 7 7 7 8 8 7 7 7 6 6 7 7 7 7 7 8 8 7 8 9 9 8 7 8 7 8 9 8 5 4 4 4 4 4 5 4 4 4 4 3 3 4 5 5 6 6 7 7
8 8 8 7 6 7 7 6 6 7 7 6 6 7 7 7 7 8 8 8 7 7 7 6 7 7 6 7 7 6 6 6 7 8 8 7 7 7 7 7 7 6 5 5 5 5 5 4 4 5 5 4 4 4 3 4 4 5 5 5 8 8
8 8 8 7 6 7 6 6 6 6 6 6 6 6 7 7 7 7 8 7 7 7 7 7 7 7 7 6 7 6 5 7 7 7 8 7 7 8 7 6 6 6 6 6 6 5 5 5 4 3 4 4 4 4 3 4 4 4 5 6 6 6
9 9 7 7 7 5 6 6 6 6 6 6 6 6 6 7 7 6 7 7 7 7 7 6 7 6 6 7 6 7 7 6 7 7 8 8 9 9 7 7 7 7 6 6 6 5 5 5 4 4 4 5 4 4 4 4 3 3 4 4 5 6
8 7 7 7 6 6 5 6 6 6 5 6 6 5 6 6 6 7 6 7 8 7 5 5 6 6 6 7 6 6 7 6 6 6 7 8 8 8 7 7 7 7 7 6 6 5 4 4 4 4 4 5 4 4 4 4 3 4 4 3 5 6
8 7 6 6 5 4 4 5 5 5 5 5 5 5 5 5 6 6 6 6 6 5 4 5 5 5 6 6 6 6 6 7 7 7 7 8 8 8 7 7 7 7 6 6 5 6 5 4 4 4 3 5 3 3 3 3 2 2 4 4 5 5
4 4 4 5 3 3 3 4 4 4 4 4 4 5 5 5 5 6 6 6 5 5 5 4 4 5 5 5 6 6 7 7 7 7 7 7 8 8 7 7 7 6 5 5 5 5 4 4 4 3 3 4 3 3 3 3 4 2 2 4 6 5
2 1 4 3 2 2 3 3 4 4 4 3 4 4 4 4 5 6 6 6 6 6 5 5 5 6 5 5 5 6 7 7 7 7 7 8 9 8 7 7 7 6 6 6 5 5 5 4 3 3 4 4 3 3 3 3 3 4 3 3 3 4
3 2 5 7 7 4 2 3 3 3 3 4 4 4 4 4 4 5 6 6 7 7 7 6 6 6 6 5 5 6 7 7 7 8 8 8 8 8 7 7 7 7 6 6 6 6 5 5 4 4 4 3 3 3 3 3 3 3 3 3 3 2
3 4 5 6 7 5 4 5 3 4 4 4 4 5 4 4 5 5 6 6 7 5 7 8 7 5 6 6 6 6 7 7 7 8 8 8 8 8 7 8 7 7 6 6 6 6 5 4 4 4 3 3 2 3 4 3 3 3 3 3 3 3
8 7 6 5 5 5 5 5 7 5 5 5 5 5 5 5 5 5 6 6 8 8 8 10 7 7 8 6 7 7 7 6 7 7 8 8 9 8 8 8 8 8 7 7 7 6 5 4 4 4 3 3 3 4 4 4 4 4 3 3 3 3
7 6 6 6 7 6 5 6 5 6 6 6 6 6 6 5 5 6 6 7 7 8 8 7 9 9 7 7 7 7 6 7 7 7 7 8 9 9 8 8 8 8 8 7 7 7 5 4 4 4 4 4 4 4 3 3 4 4 3 4 3 3
10 11 10 8 8 8 7 7 7 6 7 6 6 6 5 6 6 6 6 7 8 8 9 7 8 10 8 8 8 7 7 7 7 7 8 8 9 9 8 7 7 8 7 8 7 7 7 6 5 5 5 5 5 4 3 3 3 4 4 3 3 2
10 10 10 12 11 10 9 7 7 8 8 8 6 6 6 6 7 7 7 8 8 8 9 9 5 5 9 8 8 7 7 7 7 7 8 8 9 9 9 9 9 8 8 8 7 7 6 5 5 5 4 5 4 4 3 3 3 3 3 3 2 2
8 10 9 8 9 9 8 9 9 9 9 9 7 6 6 6 6 7 7 7 8 8 8 6 3 2 8 8 6 8 8 8 8 8 8 9 9 9 10 10 11 11 9 8 6 6 6 6 5 5 4 4 4 4 4 4 4 4 3 3 4 3
8 9 8 9 9 9 9 8 8 9 9 8 8 7 7 7 7 7 8 8 8 7 7 5 1 5 7 7 7 7 6 7 8 8 9 9 9 10 11 10 9 9 10 9 7 6 6 6 6 5 5 5 5 5 4 5 5 5 4 4 3 4
2 3 5 6 7 9 9 8 8 9 9 8 7 7 7 8 8 8 9 8 6 5 6 6 6 8 8 8 7 6 6 5 8 9 8 8 8 8 10 10 9 9 9 9 8 8 7 7 7 7 7 6 4 4 5 6 7 6 5 4 4 4
2 4 5 6 6 6 7 7 7 7 8 6 5 5 6 6 6 8 7 7 7 8 10 9 8 8 7 9 7 6 6 7 10 9 7 7 9 9 8 10 11 10 9 8 7 8 9 9 7 8 7 7 6 6 5 6 6 7 7 6 5 5
5 4 4 4 5 5 4 4 5 6 7 7 6 5 5 6 8 8 8 7 7 8 9 10 9 9 9 10 10 8 6 7 9 8 8 8 8 8 8 9 10 9 9 9 8 8 8 8 3 4 7 8 6 6 6 8 7 7 6 6 6 6
2 3 3 3 5 5 4 5 4 4 4 5 6 6 6 7 7 6 6 8 9 9 10 10 10 10 9 8 7 9 8 8 10 10 8 9 8 8 9 8 9 8 9 8 7 7 8 8 8 6 3 4 4 5 6 2 8 5 7 6 7 7
4 3 3 3 3 3 3 3 4 4 5 5 6 6 8 8 6 7 7 6 8 9 10 11 10 10 9 9 11 11 11 9 12 6 10 8 8 8 9 10 10 8 9 7 5 7 7 8 8 8 9 4 3 1 3 4 5 6 6 5 5 7
6 5 4 3 2 2 3 4 5 5 6 6 7 6 6 5 6 4 2 5 8 8 10 11 11 11 9 11 11 8 10 9 9 8 7 7 7 8 9 10 9 9 8 6 2 6 8 8 6 7 9 5 4 5 4 4 5 4 6 5 5 6
6 6 5 5 5 3 4 3 4 5 4 6 6 7 5 4 4 4 5 7 7 8 9 10 10 10 8 9 9 8 8 7 5 6 8 8 7 8 9 9 9 9 8 7 7 8 8 7 9 10 9 9 6 5 4 5 4 4 4 6 7 6
8 7 5 4 4 5 4 6 6 5 5 4 5 5 4 4 5 6 7 7 7 8 7 7 6 7 9 10 8 9 10 10 7 8 10 7 7 7 10 9 8 8 9 9 10 7 5 7 10 8 10 9 8 8 6 6 5 4 5 6 7 9
10 8 8 7 4 3 4 5 6 6 6 6 5 5 5 6 6 6 7 7 5 5 6 5 6 8 9 8 7 6 5 7 8 9 6 6 9 10 10 10 9 10 10 10 7 9 10 8 8 7 6 9 8 8 7 7 6 6 6 7 5 8
13 11 10 9 9 8 7 6 7 8 8 7 6 5 6 7 6 6 7 7 6 5 5 6 5 6 7 7 7 7 6 6 5 8 7 9 10 10 10 11 10 11 11 10 7 9 11 12 8 7 11 9 9 8 8 8 7 7 6 6 6 6
11 11 10 10 9 7 6 4 3 4 4 4 5 5 6 8 8 8 7 7 5 4 5 6 6 8 11 12 10 10 10 9 8 8 8 6 6 6 8 9 9 10 10 10 10 12 13 10 9 3 7 9 8 8 8 7 5 6 6 6 5 5
13 13 11 10 10 9 7 5 5 5 5 4 6 7 8 8 8 8 6 6 4 5 6 6 6 8 10 12 10 10 10 10 9 10 10 9 9 10 9 9 12 10 9 11 10 11 9 11 10 9 10 8 8 8 8 7 5 5 5 5 6 6
12 12 11 11 10 9 9 9 7 6 5 5 6 6 7 7 7 7 6 6 5 6 6 7 8 9 7 9 11 10 10 10 10 11 11 11 10 10 11 11 11 8 10 9 9 12 13 11 10 12 10 8 10 9 9 7 7 6 6 7 6 6
12 12 11 11 10 10 9 8 8 7 7 6 6 6 6 6 7 7 6 6 5 6 6 6 7 8 8 8 9 10 11 11 11 11 11 9 10 9 9 9 8 7 7 8 5 8 12 12 8 11 7 10 9 9 6 6 7 7 7 7 6 7
11 11 11 11 10 9 9 8 8 8 8 7 7 7 6 6 7 7 6 6 6 7 6 6 6 7 8 8 8 9 9 10 10 11 12 13 11 10 11 9 7 7 10 7 8 14 12 12 11 12 12 11 8 9 8 8 8 8 8 7 7 6
13 11 12 11 10 9 9 9 8 8 8 9 10 9 8 9 8 8 7 6 7 7 8 7 6 7 8 9 8 9 9 10 11 11 11 12 13 12 10 9 9 10 12 11 10 11 10 11 10 9 3 7 9 7 7 8 7 8 8 7 7 6
Wind_Direction
155 155 155 151 151 149 149 150 147 143 147 149 144 146 152 150 151 164 170 165 166 171 158 148 154 145 141 149 115 124 145 147 153 155 153 139 127 132 138 139 129 120 119 114 110 109 109 116 119 130 134 172 202 216 81 100 106 116 111 112 109 102
150 149 166 152 152 150 154 162 159 159 162 160 159 162 167 166 168 168 180 167 178 172 171 162 158 142 156 134 146 137 141 149 151 147 135 130 124 133 139 135 131 126 123 123 141 137 128 117 123 133 170 192 223 92 109 96 82 89 94 99 102 114
158 167 166 159 155 151 158 162 163 165 161 168 167 177 171 174 171 170 172 175 177 176 178 165 157 158 147 127 122 142 133 145 147 143 131 125 126 130 140 143 134 133 136 161 181 130 137 137 132 154 189 219 94 93 86 85 102 89 83 86 97 102
168 161 155 172 173 157 164 168 165 166 168 171 170 181 174 179 169 173 171 177 190 177 179 162 145 127 128 148 135 139 134 137 144 150 137 137 129 134 139 138 139 143 160 188 135 154 130 126 138 168 167 111 100 106 120 104 83 81 93 99 98 112
164 160 178 165 167 169 164 172 167 172 178 169 178 174 175 178 174 173 185 180 190 180 183 166 163 165 174 163 159 152 154 162 162 159 187 159 163 144 163 154 152 173 183 167 153 118 130 127 136 140 109 97 112 101 93 90 93 97 96 93 99 119
173 173 180 178 180 154 178 176 172 176 176 173 171 170 173 178 178 177 187 185 189 183 184 175 175 183 178 173 169 162 166 161 165 162 189 177 166 168 163 162 171 187 178 160 136 136 126 134 134 132 123 116 113 133 111 89 85 98 93 98 116 120
173 176 184 182 179 171 184 177 174 172 177 175 173 181 179 181 179 183 187 185 192 191 182 179 182 180 191 182 175 176 166 162 171 170 188 182 173 180 176 173 182 183 171 154 150 135 141 135 126 131 131 133 119 100 106 103 107 88 88 99 104 110
179 178 180 182 184 187 177 177 174 167 189 173 184 188 182 185 177 185 189 190 200 201 192 178 188 183 184 197 175 173 167 174 177 174 182 186 183 185 184 181 184 176 174 157 151 154 139 130 139 131 124 118 120 118 102 100 89 93 109 118 127 113
186 189 181 186 188 189 176 177 172 187 185 176 199 199 197 180 190 188 193 199 200 208 205 188 195 186 188 197 186 174 179 186 176 175 180 192 188 188 183 186 184 179 170 163 153 152 149 143 144 147 137 126 103 102 115 112 125 118 108 130 123 104
193 193 192 190 190 183 176 176 182 193 185 188 205 206 198 202 203 196 195 205 209 209 212 207 198 198 194 196 192 185 182 182 187 169 182 191 192 192 186 185 184 180 174 172 160 150 156 158 155 137 146 125 138 128 125 133 139 133 120 102 113 116
198 197 201 203 191 180 177 184 188 193 188 203 201 203 206 214 213 208 201 203 215 211 214 216 218 208 203 198 194 195 193 184 184 183 183 187 194 199 191 184 191 183 178 177 158 152 175 160 158 153 143 138 140 136 134 126 118 103 124 127 124 151
206 204 211 212 187 206 192 198 190 202 198 205 198 213 210 213 224 218 208 197 202 205 216 216 226 221 225 212 199 203 199 197 192 187 187 181 193 200 198 190 189 187 182 174 166 167 162 168 162 153 141 127 156 142 135 138 139 128 88 109 134 140
238 220 237 236 202 226 224 211 198 215 208 201 208 217 219 218 222 228 217 200 199 207 213 219 220 223 224 225 214 209 210 206 202 193 190 184 189 198 197 191 190 190 185 178 180 164 169 162 163 157 144 159 156 140 123 162 141 138 140 155 142 148
12 350 9 324 334 296 252 235 227 225 227 207 215 220 219 225 234 234 227 205 206 207 211 220 217 221 230 227 222 213 214 210 211 196 186 185 189 197 196 196 195 190 186 185 184 175 177 173 167 162 163 173 160 132 169 172 144 141 162 153 146 161
236 179 191 189 203 234 278 284 274 231 221 225 223 226 218 211 223 237 234 217 207 205 235 220 217 232 230 224 217 217 214 213 211 203 197 193 197 194 196 200 198 199 187 196 191 188 185 171 175 176 165 178 160 164 184 156 156 164 170 147 186 162
208 182 197 205 213 209 220 201 232 231 229 221 231 224 218 222 223 223 227 228 212 205 201 230 211 229 231 220 219 221 214 215 214 206 209 196 205 200 194 200 201 200 190 195 191 188 186 179 188 178 174 171 177 203 188 167 173 180 171 181 179 166
167 184 191 194 212 222 219 223 227 228 224 227 231 229 223 217 219 228 229 226 219 215 210 226 230 225 215 219 225 220 215 210 212 219 211 203 207 205 199 196 195 201 200 193 192 184 184 185 188 188 183 195 191 205 206 179 179 181 175 202 172 167
173 185 180 182 195 208 211 215 221 222 220 229 230 235 230 224 224 223 224 229 224 215 222 207 225 236 225 227 230 224 218 208 210 211 212 210 210 206 195 195 193 194 197 197 193 188 190 194 191 190 193 203 196 204 206 185 200 200 203 179 165 163
192 183 176 167 182 199 207 211 218 223 222 223 227 230 232 232 233 227 225 226 228 226 217 214 214 258 253 234 234 231 225 208 209 206 209 209 210 204 193 190 193 184 192 201 197 189 197 190 190 188 192 196 192 214 203 196 203 226 220 163 143 177
196 181 185 185 174 188 204 211 218 223 225 223 220 219 224 237 238 238 234 228 228 233 230 225 219 315 290 256 252 237 225 210 207 204 204 204 201 201 187 191 192 192 192 198 200 193 190 186 178 180 181 187 196 201 209 199 206 206 219 179 175 199
197 187 189 185 192 196 198 206 217 224 228 220 217 216 230 229 231 236 240 234 227 230 232 208 231 229 236 237 229 250 255 222 211 211 206 206 202 197 187 186 182 188 192 194 193 190 184 184 179 167 180 186 193 202 202 210 212 205 205 193 174 209
228 213 242 226 205 199 198 196 200 213 222 228 216 213 223 225 228 227 229 236 244 252 246 238 202 213 229 233 219 219 217 248 243 214 210 202 201 198 194 189 183 190 194 194 190 188 181 178 183 191 186 182 194 190 206 214 216 200 202 192 187 200
238 270 260 252 240 220 213 214 213 216 223 227 237 250 256 254 238 238 237 236 237 241 239 236 219 205 218 236 228 223 221 206 229 225 204 194 191 190 190 185 188 197 189 191 191 188 187 197 199 189 207 197 194 206 181 223 212 205 197 194 191 203
338 312 272 239 261 258 235 237 233 249 249 248 249 239 250 261 263 253 245 243 245 240 243 245 241 227 213 221 222 219 227 221 221 223 204 192 190 185 183 187 192 195 194 189 195 187 187 205 266 172 204 206 191 216 192 214 206 192 190 187 192 197
4 355 326 290 246 250 241 238 237 244 270 268 262 265 263 255 243 242 245 246 244 244 247 247 239 234 224 219 219 228 224 229 221 215 206 198 190 195 187 188 187 184 191 196 184 177 184 200 217 251 281 168 187 207 232 157 171 167 183 181 193 194
20 14 350 311 277 275 269 261 245 235 238 248 253 241 251 255 252 230 232 239 248 240 242 248 245 235 223 218 224 224 224 224 227 206 214 202 194 188 194 193 190 194 189 204 209 176 187 201 208 220 225 264 327 237 250 166 195 175 182 198 190 200
22 13 19 332 314 253 271 275 266 255 247 246 261 265 278 293 287 322 334 254 247 241 241 247 248 244 230 226 227 222 223 218 222 215 214 200 187 186 196 200 188 193 190 169 168 194 197 187 192 229 229 230 224 219 250 208 204 179 182 180 194 187
16 16 25 3 328 326 310 301 281 280 269 269 271 283 293 291 291 270 249 245 252 256 252 254 253 249 237 228 227 223 228 227 203 244 231 209 195 189 193 197 192 200 182 173 185 203 203 193 198 206 208 218 211 243 246 231 258 255 192 197 189 193
16 12 15 29 360 329 307 305 311 303 295 284 288 295 275 260 262 253 255 255 260 266 263 254 240 229 236 231 222 222 218 210 194 211 214 203 201 190 199 194 189 190 190 186 195 186 200 207 210 220 193 210 212 215 215 212 221 231 236 211 193 186
16 13 14 18 3 321 289 297 301 301 295 296 288 287 289 285 270 263 266 267 253 248 252 242 219 226 228 229 229 227 229 201 178 207 190 199 209 194 208 200 196 197 194 193 188 191 210 212 214 217 202 195 201 207 209 207 208 216 228 255 229 188
16 7 11 12 9 5 349 337 328 326 326 322 313 298 296 289 283 275 267 267 259 260 260 243 222 209 211 205 216 216 219 209 198 203 195 200 214 200 206 203 201 201 198 190 193 218 226 221 199 197 214 204 203 207 204 206 203 205 218 212 225 200
17 14 7 2 359 359 351 340 305 308 307 294 289 285 278 279 284 280 270 266 266 265 253 247 226 218 216 211 215 218 213 203 199 183 193 203 198 212 218 214 210 204 200 189 202 213 216 216 210 241 241 204 207 208 207 215 202 225 204 218 225 208
16 10 9 10 1 348 342 338 337 328 315 302 281 271 276 280 280 278 274 263 256 257 250 244 235 232 223 211 209 213 213 205 181 182 185 193 202 209 209 213 213 211 205 197 197 212 216 216 204 202 217 214 209 210 212 208 214 204 216 233 210 215
15 12 8 5 4 359 351 343 335 323 311 301 287 280 275 276 280 280 279 271 252 250 242 234 240 240 234 220 214 210 210 209 192 189 187 189 198 209 211 220 215 201 212 206 203 209 219 215 208 213 219 199 201 208 213 206 201 209 212 215 214 211
2 5 11 10 3 1 355 348 350 343 332 308 286 276 277 279 273 264 261 262 253 253 250 237 236 243 242 237 228 215 208 204 201 196 190 193 197 201 210 216 220 205 222 225 199 250 223 217 210 220 217 227 202 211 193 218 205 214 215 211 216 202
3 359 360 2 2 354 352 344 349 345 327 311 295 288 281 274 274 273 267 258 254 249 254 256 251 244 240 237 229 222 208 208 201 198 194 196 197 202 206 209 219 213 219 214 201 213 224 217 217 214 207 211 212 208 206 210 209 209 224 207 212 209
359 358 1 2 356 352 347 341 342 337 329 318 310 306 303 302 296 289 279 264 260 258 254 254 253 246 243 238 232 221 216 213 212 206 202 201 201 204 200 205 214 216 211 206 206 215 215 223 212 212 280 233 220 220 207 214 219 214 213 226 218 204